Regional Weather Roundup
Issued by NWS Sioux Falls, SD

Home | Current Version | Previous Version | Text Only | Print | Product List | Glossary On
Versions: 1 2 3 4 5 6 7 8 9 10 11 12 13 14 15 16 17 18 19 20 21 22 23 24 25 26 27 28 29 30 31 32 33 34 35 36 37 38 39 40 41 42 43 44 45 46 47 48 49 50
000
ASUS43 KFSD 200010
RWRFSD

WEATHER ROUNDUP FOR SE SOUTH DAKOTA/SW MINNESOTA/NW IOWA
NATIONAL WEATHER SERVICE SIOUX FALLS SD
600 PM CST SUN FEB 19 2017

NOTE: "FAIR" INDICATES FEW OR NO CLOUDS BELOW 12,000 FEET WITH NO
SIGNIFICANT WEATHER AND OR OBSTRUCTIONS TO VISIBILITY.


SDZ038>040-050-052>070-200100-
SOUTHEAST SOUTH DAKOTA

CITY           SKY/WX    TMP DP  RH WIND       PRES   REMARKS
BROOKINGS      PTCLDY    56  49  77 S20G28    29.67R
CHAMBERLAIN    CLOUDY    62  46  57 SE5       29.56S
6HR MIN TEMP:  60; 6HR MAX TEMP:  70;

HURON          PTCLDY    59  51  75 S13       29.59R
6HR MIN TEMP:  57; 6HR MAX TEMP:  63;

MADISON        FAIR      55  55 100 S14G21    29.67R
MITCHELL       PTCLDY    62  51  67 S20G28    29.61R
6HR MIN TEMP:  56; 6HR MAX TEMP:  64;

SIOUX FALLS    CLOUDY    59  51  75 SE13      29.70R
6HR MIN TEMP:  58; 6HR MAX TEMP:  64;

WINNER         FAIR      66  42  41 S13       29.56F
YANKTON        CLOUDY    61  50  67 SE10      29.67R
$$

MNZ071-072-080-081-089-090-097-098-200100-
SOUTHWEST MINNESOTA

CITY           SKY/WX    TMP DP  RH WIND       PRES   REMARKS
FAIRMONT       CLOUDY    56  51  84 SE15      29.81F
JACKSON        PTCLDY    54  48  82 SE13      29.79S
LUVERNE        PTCLDY    55  46  71 S10       29.74S
MARSHALL       CLOUDY    57  51  80 SE16      29.71S
6HR MIN TEMP:  57; 6HR MAX TEMP:  65;

MONTEVIDEO     PTCLDY    55  50  82 S15       29.72S
PIPESTONE      PTCLDY    55  46  71 S15       29.72R
REDWOOD FALLS  CLOUDY    56  51  84 SE15      29.76S
TRACY          PTCLDY    57  52  84 SE14      29.73S
WINDOM         PTCLDY    57  50  77 SE14      29.78S
WORTHINGTON    CLOUDY    56  49  77 S13       29.77S
$$

IAZ001>003-012>014-020>022-031-032-NEZ013-014-SDZ071-200100-
NORTHWEST IOWA

CITY           SKY/WX    TMP DP  RH WIND       PRES   REMARKS
CHEROKEE       CLOUDY    58  50  74 S9        29.78R
DENISON        PTCLDY    61  50  67 S9        29.79S
ESTHERVILLE    CLOUDY    54  51  90 SE14      29.79F
LE MARS        PTCLDY    61  50  67 SE12G17   29.75S
SHELDON        CLOUDY    55  54  94 SE16      29.74S
SIOUX CITY     PTCLDY    63  52  67 S15       29.74S
6HR MIN TEMP:  59; 6HR MAX TEMP:  67;

SPENCER        CLOUDY    57  49  74 SE13      29.78S
6HR MIN TEMP:  57; 6HR MAX TEMP:  64;

STORM LAKE     MOCLDY    57  50  77 S15G22    29.80R
$$

ABBREVIATIONS USED IN REMARKS
   TC - TEMPERATURE IN CELSIUS
  WCI - WIND CHILL INDEX
   HX - HEAT INDEX
  VSB - VISIBILITY





USA.gov is the U.S. government's official web portal to all federal, state and local government web resources and services.